Location: Houhaj�rvi
(61.2833°N, 23.0000°E)
Time: 09:17:34
(UTC+00:00)

Cosmos 1844 Rocket - Pass Details

Date: 27 February 2020
Orbit: 823 x 846 km, 71.0° (Epoch: 27 March)

Event Time Altitude Azimuth Distance (km) Brightness Sun altitude
Rises 20:31:12 0° 316° (NW) 3,407 7.0 -31.9°
Reaches altitude 10° 20:33:39 10° 318° (NW) 2,473 6.0 -32.1°
Enters shadow 20:38:03 55° 334° (NNW) 1,019 3.3 -32.4°
